Weather reports worldwide

Advertisment
Kleine Brogel, Belgium (6479): temperature & dewpoint: 19.01.2017 02:00:00 - 25.01.2017 02:00:00 (CET)Kleine Brogel, Belgium (6479): wind speed & gusts: 19.01.2017 02:00:00 - 25.01.2017 02:00:00 (CET)Kleine Brogel, Belgium (6479): wind direction: 19.01.2017 02:00:00 - 25.01.2017 02:00:00 (CET)Kleine Brogel, Belgium (6479): reduced air pressure: 19.01.2017 02:00:00 - 25.01.2017 02:00:00 (CET)Kleine Brogel, Belgium (6479): visibility: 19.01.2017 02:00:00 - 25.01.2017 02:00:00 (CET)Kleine Brogel, Belgium (6479): precipitation: 19.01.2017 02:00:00 - 25.01.2017 02:00:00 (CET)
Date & Time tt [°C] td [°C] ff [km/h] ff [kn] fx [km/h] fx [kn] dd ppp [hPa] vv [km] rr [mm]
25.01.2017 02:00:00 -1,1 -1,8 4 2 7 4 N 1031,2 2,1 -
25.01.2017 01:00:00 -1,1 -1,7 4 2 - - N 1031,5 2,3 0,2
25.01.2017 00:00:00 -0,9 -1,7 4 2 11 6 N 1031,5 2,7 -
24.01.2017 23:00:00 -0,2 -1,5 4 2 11 6 N 1031,4 3,4 -
24.01.2017 22:00:00 0,0 -1,3 4 2 - - N 1031,5 4,4 -
24.01.2017 21:00:00 0,0 -0,5 4 2 4 2 N 1031,5 4,0 -
24.01.2017 20:00:00 0,1 -0,6 4 2 7 4 N 1031,2 3,2 -
24.01.2017 19:00:00 0,4 -0,3 4 2 - - N 1030,7 2,8 -
24.01.2017 18:00:00 0,5 -0,4 4 2 7 4 N 1030,5 2,8 -
24.01.2017 17:00:00 1,2 0,0 4 2 4 2 N 1030,0 3,2 -
24.01.2017 16:00:00 2,0 0,2 4 2 - - N 1030,0 4,0 -
24.01.2017 15:00:00 1,7 0,0 4 2 4 2 N 1029,7 2,5 -
24.01.2017 14:00:00 1,4 0,8 2 1 7 4 - 1029,5 1,6 -
24.01.2017 13:00:00 1,1 0,7 4 2 - - N 1029,5 1,3 -
24.01.2017 12:00:00 0,8 0,8 4 2 11 6 - 1029,8 0,8 -
24.01.2017 11:00:00 0,4 0,3 4 2 7 4 - 1029,5 0,2 -
24.01.2017 10:00:00 0,1 0,1 4 2 - - N 1028,9 0,2 -
24.01.2017 09:00:00 0,0 0,0 4 2 7 4 - 1028,5 0,2 -
24.01.2017 08:00:00 -0,1 -0,1 8 4 7 4 WSW 1027,9 0,2 -
24.01.2017 07:00:00 -0,1 -0,1 4 2 - - N 1027,5 0,2 -
24.01.2017 06:00:00 -0,1 -0,1 4 2 11 6 N 1027,4 0,2 -
24.01.2017 05:00:00 -0,1 -0,1 7 4 14 8 W 1027,2 0,2 -
24.01.2017 04:00:00 0,0 0,0 7 4 - - W 1027,0 0,3 -
24.01.2017 03:00:00 0,1 0,0 7 4 11 6 W 1027,5 0,9 -
24.01.2017 02:00:00 0,2 0,0 7 4 14 8 W 1027,2 1,3 -
24.01.2017 01:00:00 0,4 -0,4 7 4 - - WSW 1027,4 2,1 0,0
24.01.2017 00:00:00 0,5 -0,7 7 4 14 8 WSW 1027,5 2,5 -
23.01.2017 23:00:00 0,3 -1,1 7 4 11 6 SW 1027,5 2,7 -
23.01.2017 22:00:00 0,2 -1,4 7 4 - - SW 1027,7 2,7 -
23.01.2017 21:00:00 0,1 -1,6 7 4 14 8 SSW 1027,5 2,7 -
23.01.2017 20:00:00 0,2 -1,6 7 4 11 6 SSW 1027,7 3,2 -
23.01.2017 19:00:00 0,2 -1,7 5 3 - - SSW 1028,0 3,2 -
23.01.2017 18:00:00 0,1 -1,8 4 2 7 4 N 1028,0 3,2 -
23.01.2017 17:00:00 0,1 -1,9 4 2 7 4 N 1027,7 3,0 -
23.01.2017 16:00:00 0,3 -1,9 4 2 - - N 1028,0 3,0 -
23.01.2017 15:00:00 0,4 -2,0 4 2 7 4 N 1028,2 3,0 -
23.01.2017 14:00:00 0,5 -1,8 2 1 7 4 - 1028,2 2,5 -
23.01.2017 13:00:00 0,5 -1,7 4 2 - - - 1029,0 2,5 -
23.01.2017 12:00:00 0,1 -2,1 4 2 7 4 N 1029,2 2,0 -
23.01.2017 11:00:00 0,1 -1,8 7 4 7 4 ENE 1029,0 2,5 -
23.01.2017 10:00:00 0,2 -1,4 7 4 - - NNE 1028,9 2,5 -
23.01.2017 09:00:00 0,1 -1,4 8 4 11 6 NNE 1028,7 3,0 -
23.01.2017 08:00:00 0,4 -1,3 7 4 14 8 N 1028,2 4,5 -
23.01.2017 07:00:00 0,0 -1,1 4 2 - - N 1028,0 8 -
23.01.2017 06:00:00 0,2 -1,2 4 2 7 4 N 1027,7 8 -
23.01.2017 05:00:00 -0,5 -1,3 2 1 4 2 - 1027,5 3,5 -
23.01.2017 04:00:00 -0,7 -1,5 4 2 - - N 1027,7 3,0 -
23.01.2017 03:00:00 -0,7 -1,6 4 2 7 4 N 1028,0 3,7 -
23.01.2017 02:00:00 -1,2 -2,2 4 2 7 4 N 1028,4 3,5 -
23.01.2017 01:00:00 -1,9 -2,8 4 2 - - N 1028,2 3,2 0,4
23.01.2017 00:00:00 -3,2 -3,8 4 2 7 4 N 1028,2 2,9 -
22.01.2017 23:00:00 -5,1 -5,7 4 2 4 2 N 1028,2 2,7 -
22.01.2017 22:00:00 -4,9 -6,2 4 2 - - N 1028,0 3,6 -
22.01.2017 21:00:00 -5,1 -6,4 4 2 7 4 N 1027,5 4,1 -
22.01.2017 20:00:00 -4,4 -6,4 4 2 4 2 N 1027,2 6 -
22.01.2017 19:00:00 -2,8 -5,4 2 1 - - - 1027,5 4,5 -
22.01.2017 18:00:00 -1,8 -4,9 4 2 4 2 N 1027,2 9 -
22.01.2017 17:00:00 0,3 -4,9 4 2 4 2 N 1027,2 10 -
22.01.2017 16:00:00 2,6 -5,4 4 2 - - N 1027,0 12 -
22.01.2017 15:00:00 3,3 -5,3 4 2 7 4 N 1026,9 14 -
22.01.2017 14:00:00 3,5 -5,2 4 2 7 4 N 1027,0 14 -
22.01.2017 13:00:00 2,6 -4,9 4 2 - - N 1027,5 16 -
22.01.2017 12:00:00 0,8 -4,9 4 2 4 2 N 1028,4 12 -
22.01.2017 11:00:00 -1,1 -4,5 4 2 7 4 N 1028,2 11 -
22.01.2017 10:00:00 -4,4 -5,6 4 2 - - N 1028,2 8 -
22.01.2017 09:00:00 -8,1 -9,4 4 2 4 2 N 1028,0 6 -
22.01.2017 08:00:00 -6,9 -8,3 4 2 4 2 N 1028,0 7 -
22.01.2017 07:00:00 -7,3 -8,8 2 1 - - - 1028,2 7 -
22.01.2017 06:00:00 -7,3 -8,3 4 2 4 2 N 1028,4 3,8 -
22.01.2017 05:00:00 -7,4 -8,6 2 1 4 2 - 1028,5 6 -
22.01.2017 04:00:00 -6,4 -7,6 4 2 - - N 1028,5 5 -
22.01.2017 03:00:00 -6,9 -8,4 4 2 4 2 N 1028,5 4,6 -
22.01.2017 02:00:00 -6,0 -7,1 4 2 4 2 N 1028,5 4,4 -
22.01.2017 01:00:00 -6,2 -7,6 4 2 - - - 1028,5 5 0,4
22.01.2017 00:00:00 -5,9 -7,0 2 1 0 0 - 1028,9 6 -
21.01.2017 23:00:00 -5,1 -6,6 4 2 4 2 N 1028,5 5 -
21.01.2017 22:00:00 -4,1 -6,0 4 2 - - N 1028,5 7 -
21.01.2017 21:00:00 -3,2 -6,1 4 2 4 2 N 1028,5 12 -
21.01.2017 20:00:00 -1,5 -5,5 4 2 4 2 N 1028,4 13 -
21.01.2017 19:00:00 -3,4 -6,0 4 2 - - N 1028,5 19 -
21.01.2017 18:00:00 -1,2 -5,2 4 2 4 2 N 1028,5 20 -
21.01.2017 17:00:00 1,6 -5,2 4 2 11 6 N 1028,2 20 -
21.01.2017 16:00:00 3,4 -4,8 7 4 - - E 1028,2 20 -
21.01.2017 15:00:00 4,4 -4,3 7 4 14 8 E 1028,4 20 -
21.01.2017 14:00:00 4,0 -4,3 5 3 18 10 E 1029,0 10 -
21.01.2017 13:00:00 3,3 -4,5 9 5 - - E 1029,7 10 -
21.01.2017 12:00:00 2,0 -3,8 7 4 14 8 N 1030,5 19 -
21.01.2017 11:00:00 0,4 -4,1 7 4 14 8 E 1030,7 17 -
21.01.2017 10:00:00 -2,0 -4,6 11 6 - - ENE 1030,9 15 -
21.01.2017 09:00:00 -3,6 -6,0 9 5 11 6 NE 1030,9 10 -
21.01.2017 08:00:00 -5,2 -7,0 4 2 7 4 - 1030,7 10 -
21.01.2017 07:00:00 -4,0 -7,0 5 3 - - NE - 10 -
21.01.2017 06:00:00 -4,3 -7,2 7 4 7 4 NNE 1031,4 16 -
21.01.2017 05:00:00 -4,5 -6,6 4 2 7 4 N 1031,5 17 -
21.01.2017 04:00:00 -3,6 -6,1 7 4 - - N 1031,9 16 -
21.01.2017 03:00:00 -3,8 -6,1 4 2 7 4 N 1032,2 15 -
21.01.2017 02:00:00 -3,8 -5,7 4 2 7 4 N 1032,4 12 -
21.01.2017 01:00:00 -3,9 -5,7 4 2 - - N 1032,7 15 0,4
21.01.2017 00:00:00 -3,7 -5,7 4 2 4 2 - 1033,0 10 -
20.01.2017 23:00:00 -2,8 -5,1 4 2 7 4 - 1033,4 10 -
20.01.2017 22:00:00 -3,3 -5,9 4 2 - - N 1033,5 19 -
20.01.2017 21:00:00 -2,6 -5,9 4 2 4 2 N 1033,7 20 -
20.01.2017 20:00:00 -1,3 -5,8 4 2 7 4 N 1033,5 20 -
20.01.2017 19:00:00 0,0 -6,0 8 4 - - ENE - 10 -
20.01.2017 18:00:00 0,4 -4,7 11 6 18 10 ENE 1033,7 17 -
20.01.2017 17:00:00 1,9 -4,4 11 6 18 10 NE 1033,7 18 -
20.01.2017 16:00:00 4,0 -6,8 11 6 - - ENE 1033,7 20 -
20.01.2017 15:00:00 4,4 -7,2 11 6 18 10 ENE 1034,0 19 -
20.01.2017 14:00:00 4,0 -8,0 15 8 - - ENE - 10 -
20.01.2017 13:00:00 3,0 -6,0 9 5 - - ENE - 10 -
20.01.2017 12:00:00 2,0 -5,3 7 4 11 6 ENE 1035,2 20 -
20.01.2017 11:00:00 0,0 -5,5 - - 0 0 - 1035,7 19 -
20.01.2017 10:00:00 - - - - - - - - - -
20.01.2017 09:00:00 -5,0 -7,0 5 3 - - ENE - 10 -
20.01.2017 08:00:00 -5,8 -7,2 4 2 11 6 N 1035,7 12 -
20.01.2017 07:00:00 -5,9 -7,3 5 3 - - NE 1035,7 9 -
20.01.2017 06:00:00 -4,7 -7,1 4 2 7 4 N 1036,0 17 -
20.01.2017 05:00:00 -4,1 -6,4 7 4 11 6 E 1036,0 11 -
20.01.2017 04:00:00 -3,6 -6,3 7 4 - - NE 1036,0 10 -
20.01.2017 03:00:00 -3,4 -6,1 4 2 7 4 N 1036,0 7 -
20.01.2017 02:00:00 -3,4 -5,8 4 2 7 4 N 1036,2 10 -
20.01.2017 01:00:00 -4,3 -5,8 7 4 - - NNE 1036,5 7 0,3
20.01.2017 00:00:00 -5,2 -6,6 4 2 4 2 N 1037,0 8 -
19.01.2017 23:00:00 -4,7 -6,2 4 2 4 2 N 1037,0 8 -
19.01.2017 22:00:00 -3,8 -5,7 4 2 - - N 1037,2 11 -
19.01.2017 21:00:00 -2,8 -5,4 4 2 4 2 N 1037,4 13 -
19.01.2017 20:00:00 -2,9 -5,8 4 2 4 2 N 1037,5 17 -
19.01.2017 19:00:00 -1,8 -5,4 4 2 - - - 1037,2 10 -
19.01.2017 18:00:00 -0,8 -5,2 4 2 7 4 N 1037,2 14 -
19.01.2017 17:00:00 0,2 -5,2 7 4 11 6 NE 1037,2 25 -
19.01.2017 16:00:00 2,0 -5,2 7 4 - - ENE 1037,2 25 -
19.01.2017 15:00:00 2,8 -6,8 11 6 18 10 ENE 1037,0 25 -
19.01.2017 14:00:00 2,2 -6,9 13 7 18 10 ENE 1037,2 10 -
19.01.2017 13:00:00 1,3 -6,0 9 5 - - E 1038,0 10 -
19.01.2017 12:00:00 0,1 -4,6 11 6 14 8 ENE 1038,2 20 -
19.01.2017 11:00:00 -1,9 -4,8 7 4 14 8 ENE 1038,7 20 -
19.01.2017 10:00:00 -4,3 -5,9 7 4 - - ENE 1038,5 15 -
19.01.2017 09:00:00 -5,8 -7,0 4 2 7 4 N 1038,5 13 -
19.01.2017 08:00:00 -5,8 -7,4 4 2 11 6 N 1038,2 10 -
19.01.2017 07:00:00 -5,7 -7,0 7 4 - - ENE 1037,7 11 -
19.01.2017 06:00:00 -5,2 -6,6 7 4 11 6 NE 1038,0 11 -
19.01.2017 05:00:00 -5,2 -6,3 7 4 11 6 ENE 1038,2 7 -
19.01.2017 04:00:00 -5,4 -6,4 4 2 - - N 1038,2 5 -
19.01.2017 03:00:00 -5,5 -6,5 4 2 7 4 N 1038,5 4,6 -
19.01.2017 02:00:00 -5,7 -6,6 4 2 7 4 N 1038,5 2,9 -

tt = temperature
td = dewpoint
ff = wind speed
fx = gusts
dd = wind direction
ppp = reduced air pressure
vv = visibility
rr = precipitation

Next stations